Tracking 20382 objects as of 24-Feb-2020
HD Live streaming from Space Station
objects crossing your sky now
Track the group of recently launched Starlink satellites

IRIDIUM 33 DEB

Track IRIDIUM 33 DEB now!
10-day predictions


NORAD ID: 33961
Int'l Code: 1997-051BW
Perigee: 665.6 km
Apogee: 690.1 km
Inclination: 86.3 °
Period: 98.2 minutes
Semi major axis: 7048 km
RCS: 0.033 m2 (small)
Launch date: September 14, 1997
Source: United States (US)
Launch site: TYURATAM MISSILE AND SPACE COMPLEX (TTMTR)

Note: This is SATELLITE DEBRIS
aabbcc
Your satellite tracking list
Your tracking list is empty




NASA's NSSDC Master Catalog

Two Line Element Set (TLE):
1 33961U 97051BW  20054.67912248 +.00002125 +00000-0 +37452-3 0  9998
2 33961 086.2709 141.5683 0017324 053.1108 307.1690 14.66981617583000
Source of the keplerian elements: AFSPC